ITY1765 LIML-LICT

Flight info

Callsign ITY1765
Flight time N/A
Altitude 35000
Route LOGDI DCT LOMED DCT TAQ DCT PEPIX DCT GIANO
Aircraft A21N/M-SDE2E3FGHIRWXY/LB1

Departure

Time N/A
Airport Milano Linate Airport (LIML)

Arrival

Time 2026-04-28 17:05
Airport Vincenzo Florio Airport Trapani-Birgi (LICT)
Time Latitude Longitude Altitude Speed Heading
2026-04-28 16:56 38.22330 12.24666 4959 ft 262 kts 176°
2026-04-28 16:57 38.20506 12.24809 4614 ft 263 kts 176°
2026-04-28 16:57 38.18694 12.24950 4293 ft 260 kts 175°
2026-04-28 16:57 38.16902 12.25091 3959 ft 257 kts 175°
2026-04-28 16:57 38.15127 12.25232 3627 ft 254 kts 175°
2026-04-28 16:58 38.13374 12.25372 3309 ft 251 kts 175°
2026-04-28 16:58 38.11644 12.25512 3037 ft 246 kts 175°
2026-04-28 16:58 38.09978 12.25643 2966 ft 231 kts 175°
2026-04-28 16:58 38.08435 12.25766 2958 ft 213 kts 174°
2026-04-28 16:59 38.07018 12.25877 2959 ft 194 kts 175°
2026-04-28 16:59 38.05709 12.26101 2957 ft 188 kts 161°
2026-04-28 16:59 38.04605 12.26960 2942 ft 188 kts 135°
2026-04-28 16:59 38.03781 12.28255 2713 ft 189 kts 129°
2026-04-28 17:00 38.02982 12.29575 2487 ft 189 kts 130°
2026-04-28 17:00 38.02182 12.30892 2310 ft 188 kts 129°
2026-04-28 17:00 38.01402 12.32184 2210 ft 173 kts 130°
2026-04-28 17:00 38.00726 12.33292 2211 ft 147 kts 130°
2026-04-28 17:01 38.00109 12.34293 2198 ft 143 kts 130°
2026-04-28 17:01 37.99536 12.35226 2227 ft 128 kts 129°
2026-04-28 17:01 37.99004 12.36130 2229 ft 128 kts 128°
2026-04-28 17:01 37.98479 12.37043 2212 ft 128 kts 129°
2026-04-28 17:02 37.97924 12.37924 2089 ft 127 kts 132°
2026-04-28 17:02 37.97546 12.38488 1902 ft 126 kts 131°
2026-04-28 17:02 37.96799 12.39634 1480 ft 127 kts 132°
2026-04-28 17:02 37.96218 12.40479 1296 ft 127 kts 130°
2026-04-28 17:03 37.95184 12.42253 1164 ft 124 kts 129°
2026-04-28 17:03 37.94626 12.43096 894 ft 125 kts 130°
2026-04-28 17:03 37.94101 12.44002 795 ft 127 kts 127°
2026-04-28 17:04 37.93005 12.45845 411 ft 133 kts 130°
2026-04-28 17:04 37.92420 12.46740 212 ft 131 kts 133°
2026-04-28 17:05 37.91327 12.48493 33 ft 108 kts 128°
2026-04-28 17:05 37.90943 12.49095 33 ft 44 kts 130°
2026-04-28 17:05 37.90811 12.49350 38 ft 26 kts 120°
2026-04-28 17:06 37.90465 12.49543 38 ft 28 kts 179°
2026-04-28 17:06 37.90334 12.49638 37 ft 22 kts 127°
2026-04-28 17:06 37.90283 12.49602 36 ft 0 kts 260°